040418 J78  0.1+  0.1+    040607 A41  0.1+  0.9-    050929 834  0.5+  0.2+  

040418 J78  0.0   0.7+    040607 A41  0.1-  0.8-    050929 834  0.4+  0.1-  

040418 J78  0.0   0.7+    040607 048  0.6+  0.1+    050929 834  0.1+  0.4+  

040419 785  0.7+  1.1-    040607 048  0.8+  0.4+    051001 834  0.0   0.1+  

040419 785  0.9-  1.3+    040607 048  0.4+  0.3-    051001 834  0.1+  0.2+  

040419 442  0.8+  1.1+    040607 048  0.7+  0.5-    051001 D88  1.1-  0.1-  

040419 213  0.3-  0.1-    040607 048  0.8+  0.2-    051001 349  1.0+  0.9-  

040419 213  0.4-  0.2-    040610 J78  0.2+  0.0     051001 D88  0.1-  0.3-  

040419 213  0.5-  0.4-    040610 J78  0.4+  0.3-    051001 349  0.7+  1.0-  

040419 J97  1.5+  0.3+    040610 J78  0.5+  0.6-    051002 349  0.6+  1.4-  

040419 J97  0.6+  0.4+    040611 415  0.0   0.6-    051002 349  0.8+  1.2-  

040419 J97  0.1+  0.6+    040611 415  0.2+  0.2-    051007 213  0.7+  0.4-  

040420 D70  0.1+  0.4+    040611 415  0.3+  0.4-    051007 213  0.5+  0.3-  

040420 D70  0.4-  0.1-    040611 J87  0.1+  0.2-    051007 213  0.3+  0.0   

040420 D70  0.3+  0.2+    040611 J87  0.0   0.2-    051008 844  0.3+  0.2+  

040420 372  0.3-  0.3+    040611 J87  0.0   0.3-    051008 844  0.4+  0.4+  

040420 360  0.2+  0.1+    040612 J76  0.3+  0.2+    051008 844  0.8+  0.3+  

040420 360  0.2+  0.1+    040612 J76  0.0   0.2+    051009 I77  1.5+  0.3+  

040420 J76  1.0+  1.0+    040612 J76  0.2-  0.0     051009 I77  1.0+  0.4-  

040420 J76  1.1+  0.6+    040612 A01  0.5-  0.6+    051009 I77  0.5+  0.0   

040420 J76  0.9+  0.5+    040612 A01  0.1-  0.4+    051012 I77  0.4+  0.3+  

040420 J78  0.6+  0.2+    040613 360  0.0   0.3-    051012 I77  0.8+  0.5+  

040420 J78  0.5+  0.5+    040613 360  0.0   0.1-    051012 I77  0.4+  0.1+  

040420 J78  0.4+  0.8+    040613 349  0.5+  0.3-    051025 E12  0.3+  0.1+  

040421 945  0.3-  0.3+    040613 349  0.5+  0.2-    051025 E12  0.0   0.3+  

040421 945  0.2-  0.3+    040613 349  0.4+  0.4-    051025 E12  0.2-  0.5+  

040421 945  0.3-  0.3+    040613 349  0.7+  0.5-    051025 E12  0.3+  0.1+  

040421 945  0.2-  0.2+    040613 900  0.4+  0.2-    051127 E12  0.0   0.0   

040421 945  0.1-  0.3+    040613 900  0.1-  0.5-    051127 E12  0.2+  0.6-  

040421 D74  1.0+  0.1-    040613 213  0.0   0.4-    051127 E12  0.0   0.2+  

040421 127  0.3+  0.0     040613 213  0.2+  0.1-    2006/                   

040421 127  0.2+  0.0     040613 A46  0.2+  0.5-    060525 E12  0.5-  0.4-  

040421 127  0.2+  0.1+    040613 A46  0.3+  0.3-    060525 E12  0.2-  0.0   

040421 048  1.3-  0.0     040613 A46  0.1+  0.6-    060525 E12  0.2+  0.2-  

040421 048  1.1-  0.1-    040613 A46  0.3+  0.6-    060525 E12  0.2+  0.0   

040421 048  1.1-  0.2-    040613 A46  0.3+  0.5-    060607 I77  1.6-  0.1-  

040421 048  1.2-  0.1-    040613 213  0.4+  0.4-    060607 I77 (2.6-  0.4-) 

040421 127  0.2+  0.0     040613 A46  0.2+  0.6-    060607 I77 (2.5-  0.4-) 

040421 048  0.8-  0.0     040614 703  0.3+  0.7-    060608 I77  0.0   0.6-  

040421 170  0.0   0.1-    040614 703  0.4+  0.4-    060608 I77 (0.3-  2.0-) 

040421 127  0.2+  0.0     040614 703  0.5+  0.6-    060626 E12  0.6+  0.2+  

040421 170  0.0   0.0     040614 703  0.6+  0.5-    060626 E12  0.4+  0.0   

040423 213  0.6-  0.1-    040614 D70  0.3+  0.6-    060626 E12  0.0   0.4+  

040423 213  0.6-  0.3-    040614 D70  0.8+  0.3-    060626 E12  0.0   0.7-  

040423 213  0.6-  0.5-    040614 347  0.6+  0.8-    060831 215  0.4-  0.3+  

040423 J97  0.0   0.8+    040614 347  0.1+  0.9-    060831 215  0.3-  0.3+  

040423 J97  0.2+  0.9+    040616 699 (3.4+  1.8+)   060831 215  0.1+  0.3+  

040423 J97  0.1+  0.7+    040616 699  0.5+  0.3-    060910 204  0.1-  0.1+  

040423 J87  0.4+  0.5+    040616 699  0.2+  0.2-    060910 204  0.1+  0.0   

040423 J87  0.4+  0.6+    040616 699  0.7+  0.5-    060913 415  0.6+  0.4+  

040423 J87  0.3+  0.5+    040616 415  0.6+  0.6+    060913 415  0.2+  0.3+  

040424 939  0.2-  0.2+    040616 415  0.6+  0.0     060914 415  0.5+  0.3+  

040424 939  0.0   0.2+    040616 415  0.2+  0.4+    060914 415  0.4+  0.2+  

040424 939  0.0   0.2+    040616 J97  0.5+  0.2-    060917 699 (3.2-  0.1+) 

040424 945  0.6-  0.1+    040616 J97  0.6+  0.0     060917 699 (5.0-  0.5-) 

040424 945  0.5-  0.1+    040616 J97  1.0+  0.4-    060917 699 (3.0-  0.1-) 

040424 945  0.5-  0.2+    040616 J97  0.9+  0.1-    060922 703  0.1+  0.7+  

040424 945  0.4-  0.3+    040616 J97  1.6+  0.3-    060922 703  1.0-  0.1-  

040424 945  0.4-  0.2+    040617 939  0.1+  0.5-    060922 703  0.6-  0.0   

040424 703  0.7-  0.5-    040617 213  0.2-  0.3-    060922 703  1.0-  0.1+  

040424 703  0.9-  0.4-    040617 213  0.3+  0.1+    060923 349  1.5-  0.5+  

040424 703  1.0-  0.3-    040617 213  0.2+  0.3+    060923 349  1.6-  0.7+  

040424 703  1.2-  0.3-    040617 939  0.2+  0.5-    060923 349  1.4-  1.1+  

040424 379  0.4-  0.3+    040617 939  0.4+  0.8-    060923 D70  1.1-  0.6+  

040424 379  0.1-  0.4+    040618 939  0.1-  0.5-    060925 415  0.6+  0.4+  

040424 379  0.1-  0.1+    040618 939  0.1+  0.7-    060925 415  1.3+  0.5+  

040424 379  0.5-  0.1-    040618 939  0.3+  0.7-    060927 703  0.2+  0.2+  

040424 379  0.2-  0.1+    040618 442  0.2-  0.1-    060927 703  0.5+  0.4+  

040424 379  0.2+  0.3+    040618 442  0.2+  0.2+    060927 703  0.2-  0.7+  

040424 372  0.1-  0.0     040619 A01  0.3-  0.5+    060927 703  0.6-  1.2+  

040424 360  0.0   0.2+    040619 A01  0.3+  0.3+    061001 415  1.0+  0.5+  

040424 360  0.0   0.0     040619 A01  0.2-  0.5+    061001 415  0.2+  0.4+  

040424 349  0.6-  0.3+    040620 349  0.1+  0.0     061010 415  0.5+  0.4+  

040424 349  0.7-  0.3+    040620 349  0.0   0.1-    061010 415  0.8+  0.3+  

040424 349  0.7-  0.2+    040620 349  0.2+  0.1+    061011 644  0.3-  0.4+  

040424 349  0.8-  0.2+    040620 349  0.0   0.2-    061011 644  0.2+  0.4+  

040424 J78  0.5+  0.2+    040621 415  0.1+  0.0     061011 644  0.2+  0.5+  

040424 J78  0.5+  0.1+    040621 415  0.2+  0.1+    061109 D88  0.5-  1.3+  

040424 J76  0.2-  0.2-    040621 415  0.1+  0.2+    061109 D88  0.3-  1.5+  

040424 J76  0.3-  0.2-    040623 J76  0.7+  0.1-    061109 D88  0.8-  1.5+  

040424 J78  0.4+  0.2+    040623 J76  0.6+  0.1-    061112 349  0.4+  0.7+  

040424 170  0.5-  0.0     040623 J76  0.5+  0.0     061112 349  0.2+  0.7+  

040424 170  0.2-  0.1-    040624 A46  0.5+  0.9-    061112 349  0.2+  0.6+  

040424 939  0.2-  0.2+    040624 A46  0.1-  0.0     061113 644  0.2-  1.0+  

040424 939  0.1-  0.2+    040624 A46  0.4-  0.6-    061113 644  0.1-  0.4+  

040424 J76  0.3-  0.0     040624 A46  0.4+  0.5-    061113 644  0.2+  0.9+  

040424 939  0.1-  0.2+    040624 A46  0.2-  0.5-    061127 703  0.0   0.1-  

040425 J78  0.4+  0.3+    040624 A46  0.4+  0.8-    061127 703  0.0   0.5+  

040425 A01  0.2+  0.4-    040626 048  0.8+  0.6-    061127 703  0.0   0.4+  

040425 A01  0.3+  0.4-    040626 048  0.7+  1.0-    061213 215  0.5+  0.2+  

040425 A01  0.4+  0.4-    040626 048  0.9+  0.9-    061213 215  0.2+  0.4+  

040425 A02  0.3-  0.2-    040626 048  0.6+  0.8-    061213 215  0.0   0.5+  

040425 A02  0.3-  0.1-    040626 048  0.8+  0.8-    061214 644  0.5+  0.5+  

040425 A02  0.4-  0.2-    040629 A46  0.3+  0.4-    061214 644  1.1+  0.9+  

040425 333  0.7-  0.2+    040629 213  0.2+  0.3-    061214 644  0.8+  0.8+  

040425 333  0.7-  0.2+    040629 213  0.1-  0.1+    061222 703  0.3-  0.1+  

040425 333  0.7-  0.1+    040629 A46  0.3+  0.6-    061222 703  0.0   0.1-  

040425 699  0.8-  0.4-    040629 A46  0.3-  0.7-    061222 703  0.6+  0.3-  

040425 699  1.1-  0.3-    040629 213  0.5+  0.2+    061222 703  0.3-  0.2-  

040425 699  1.3-  0.5-    040629 A46  0.3+  0.7-    061223 204  0.5+  0.4+  

040425 699  1.2-  0.4-    040629 A46  0.3+  0.5-    061223 204  0.5+  0.4+  

040425 608  1.1-  1.0+    040629 A46  0.4+  0.4-    2007/                   

040425 608  0.9-  0.9+    040703 939  0.4-  0.4-    070107 D88  0.3-  1.2-  

040425 608  0.9-  0.8+    040703 939  0.0   0.6-    070107 D88  0.4-  0.5-  

040425 372  0.4+  0.9+    040703 939  0.2+  0.7-    070107 D88  0.0   0.3+  

040425 372  0.2+  1.0+    040703 J78  0.5+  0.5-    070821 300  0.0   0.9+  

040425 379  0.3-  0.1+    040703 J78  0.5+  0.2+    070821 300  0.4-  0.6+  

040425 379  0.0   0.6+    040703 J78  0.3+  0.1-    070821 300  0.6-  0.8+  

040425 D83  0.3-  0.2-    040704 939  0.1-  0.4-    070821 300  0.7-  0.7+  

040425 D83  0.1+  0.0     040704 939  0.0   0.4-    070821 300  1.1-  0.2+  

040425 D83  0.1-  0.1-    040704 939  0.0   0.6-    070821 300  0.7-  0.2+  

040425 D83  0.2-  0.1-    040707 J97 (2.2+  0.2-)   070821 300  0.9-  0.0   

040425 945  0.6-  0.1-    040707 J97  0.9+  0.2-    071007 703 (5.6-  1.3-) 

040425 945  0.5-  0.1-    040707 J76  0.4+  0.3-    071007 703 (4.1-  0.3-) 

040425 945  0.6-  0.1-    040707 J97  0.4+  0.2-    071007 703 (3.7-  0.1+) 

040425 945  0.6-  0.0     040707 J76  0.9+  0.3-    071007 703 (4.5-  1.1-) 

040425 204  0.4+  0.2+    040707 939  0.4+  0.4-                            

040425 945  0.6-  0.0     040707 J76  0.8+  0.1-                            



NAKANO

         **** Don't distribute anyone except personal use only ****

                (C) Copyright 2007 OAA/ComputingSection

write mail from CFAD0::NAKANO on 2007-10-18 07:23:28(JST).

 





   P/2004 F3 (NEAT)

Epoch 2004 Dec. 21.0 TT = JDT 2453360.5  

T 2005 Jan. 4.29958 TT                                  Nakano

q   2.8640671            (2000.0)            P               Q

n   0.12253048     Peri.  176.12487     -0.25699118     +0.92786717

a   4.0145785      Node    78.83142     -0.89390721     -0.12196831

e   0.2865833      Incl.   15.98793     -0.36726753     -0.35240069

P   8.04

From 1034 observations 2004 Jan. 29-2006 Nov. 13, mean residual 0".51.



NAKANO

         **** Don't distribute anyone except personal use only ****

